Regional Weather Roundup
Issued by NWS Bismarck, ND

Home | Current Version | Previous Version | Text Only | Print | Product List | Glossary On
Versions: 1 2 3 4 5 6 7 8 9 10 11 12 13 14 15 16 17 18 19 20 21 22 23 24 25 26 27 28 29 30 31 32 33 34 35 36 37 38 39 40 41 42 43 44 45 46 47 48 49 50
000
ASUS43 KBIS 241102
RWRBIS

NWR BROADCAST TEXT
NATIONAL WEATHER SERVICE BISMARCK ND
600 AM CDT SUN JUL 24 2016

NOTE: "FAIR" INDICATES FEW OR NO CLOUDS BELOW 12,000 FEET WITH NO
SIGNIFICANT WEATHER AND/OR OBSTRUCTIONS TO VISIBILITY.


CITY           SKY/WX    TMP DP  RH WIND       PRES   REMARKS
WILLISTON      CLEAR     58  52  80 W10       30.00S
MINOT          CLEAR     65  55  70 W15       29.92R
MINOT AFB      CLEAR     59  56  87 NW14      29.91R
BISMARCK       CLEAR     61  56  83 NW7       29.99F
DICKINSON      CLEAR     51  48  89 W6        30.03S
GARRISON         N/A     58  56  93 W8        29.97R
HETTINGER ARPT PTCLDY    52  47  83 NW3       30.08S
JAMESTOWN      CLEAR     63  59  87 W12       29.91R
CARRINGTON     FAIR      61  59  94 W12       29.93R
OAKES            N/A    N/A N/A N/A MISG        N/A
$$

CITY           SKY/WX    TMP DP  RH WIND       PRES   REMARKS
GRAND FORKS    PTCLDY    63  59  87 NW9       29.80R
GRAND FORKS AF CLEAR     63  59  86 NW9       29.81R
DEVILS LAKE    CLEAR     63  60  90 W12       29.87
FARGO          CLEAR     62  59  90 W8        29.83R
GWINNER        FAIR      63  59  88 W9        29.90S
LANGDON        FAIR      55  55 100 W7        29.83S
ROLLA            N/A     59  59 100 W7        29.87R
$$

CITY           SKY/WX    TMP DP  RH WIND       PRES   REMARKS
ABERDEEN       CLEAR     64  56  75 NW13      29.94S
MOBRIDGE       CLEAR     64  56  75 NW12      29.97F
BUFFALO          N/A     63  50  62 N14       30.01F
RAPID CITY     CLOUDY    66  48  52 N10       30.09F
GLASGOW        CLEAR     56  52  86 SE6       30.02R
SIDNEY         CLEAR     54  51  90 CALM      30.02S
WOLF POINT     CLEAR     54  51  90 CALM      30.02F
GLENDIVE       CLEAR     53  49  86 SW5       30.05F
MILES CITY     CLEAR     62  49  62 SE6       30.05F
BAKER          PTCLDY    52  49  89 CALM      30.09R
$$

CITY           SKY/WX    TMP DP  RH WIND       PRES   REMARKS
BILLINGS       PTCLDY    61  43  51 W7        30.09S
GREAT FALLS    CLEAR     50  39  66 SW9       30.12S
$$





USA.gov is the U.S. government's official web portal to all federal, state and local government web resources and services.